Theta_e
296 296 296 295 295 295 296 295 296 296 296 296 296 296 297 296 295 295 296 297 298 300 299 300 299 300 301 301 302 301 301 302 302 302 302 303 304 304 300 300 301 302 303 305 305 307 305 300 303 303 303 303 302 310
296 295 295 295 294 295 295 295 295 295 296 296 295 296 296 296 296 294 293 298 297 299 300 299 299 299 299 299 301 301 300 300 300 302 302 302 301 300 299 299 298 299 300 300 301 301 305 302 301 300 301 301 302 308
295 295 295 295 295 295 296 295 295 295 295 295 295 296 295 296 297 297 294 294 295 298 299 299 299 298 298 298 297 300 300 300 300 300 300 299 299 298 298 297 297 298 298 299 299 297 297 304 302 302 299 298 302 307
295 295 295 294 294 295 295 295 295 294 294 294 294 294 295 297 296 295 294 294 297 298 301 300 297 297 296 297 297 298 299 299 299 299 299 300 299 298 298 298 297 297 297 296 297 297 296 300 300 300 298 298 301 303
295 294 294 294 295 295 295 295 295 294 296 296 296 296 296 297 295 295 295 294 296 300 301 299 298 298 298 298 298 298 299 300 300 300 299 299 298 298 298 298 297 298 297 297 298 296 297 296 298 298 298 298 301 299
295 295 294 295 295 295 295 295 296 297 296 296 297 296 295 295 295 295 296 295 298 297 300 299 300 299 299 299 299 300 300 299 299 299 298 298 298 298 298 298 298 298 298 297 297 297 297 297 297 297 297 298 299 299
295 295 295 295 295 296 295 295 295 295 295 295 295 295 295 295 296 298 299 297 297 297 299 300 300 299 298 299 300 300 300 300 299 300 300 299 299 299 300 299 298 298 297 297 298 298 297 297 297 298 297 297 297 297
294 294 294 295 296 295 295 295 294 294 294 294 294 293 294 295 296 297 296 295 296 297 298 300 299 299 297 299 299 299 299 300 300 299 299 298 298 298 298 298 297 298 298 299 298 297 297 297 297 298 298 297 297 298
294 294 295 295 294 294 294 294 294 294 294 294 293 293 296 296 296 296 294 295 296 298 298 299 299 300 297 298 299 299 298 299 298 299 298 297 297 297 297 298 298 299 299 299 299 299 298 299 297 297 298 298 297 298
292 293 293 293 292 291 291 292 293 293 293 294 295 297 299 296 293 294 296 298 298 298 299 299 298 298 297 298 298 296 297 296 297 297 297 297 297 298 298 299 299 299 299 300 299 299 299 299 299 298 298 298 298 299
292 292 292 292 292 292 292 292 292 295 295 296 298 296 296 294 296 296 297 297 297 297 297 297 297 298 297 297 297 297 298 297 298 298 297 298 300 298 298 297 298 298 299 298 298 299 299 300 299 298 299 299 299 300
293 292 292 292 292 291 291 292 292 294 294 294 295 294 295 295 296 296 296 295 296 295 295 296 297 296 297 297 297 298 297 296 297 297 298 300 300 298 298 297 298 297 299 299 299 299 299 298 299 300 301 301 301 301
292 292 292 292 292 292 291 291 292 291 293 295 295 295 296 296 296 296 295 294 295 295 296 296 298 298 298 297 298 298 297 298 297 299 299 300 299 297 296 296 297 296 297 298 298 299 299 297 295 296 295 295 294 293
291 291 291 291 292 291 291 291 291 292 294 296 296 294 295 296 295 294 294 296 297 296 297 297 298 298 298 298 298 298 298 297 299 299 299 301 297 296 295 294 295 295 295 295 296 295 294 294 293 292 292 291 292 292
291 291 290 292 292 291 291 291 291 293 293 294 294 294 294 294 295 295 296 296 297 297 298 299 299 299 299 298 298 297 298 298 299 302 301 296 297 296 295 293 293 293 294 295 295 295 293 293 293 292 291 291 290 290
292 291 294 292 291 291 292 293 294 294 294 294 294 294 296 296 299 298 298 297 298 298 298 297 298 299 299 298 298 298 298 299 302 300 297 296 295 295 293 292 293 293 293 294 294 294 294 293 293 293 290 291 290 291
291 294 292 291 291 292 294 294 294 294 294 294 295 296 296 296 297 297 297 298 298 298 298 297 298 299 299 299 299 299 301 301 298 296 296 295 294 293 292 292 293 293 293 293 294 293 292 293 293 293 294 292 291 291
292 293 292 292 292 293 294 294 294 294 293 294 295 296 296 296 296 296 297 297 297 297 296 296 297 297 298 297 298 300 299 297 296 295 295 294 293 292 291 291 292 292 293 294 293 294 293 292 294 294 294 293 293 292
291 292 292 291 291 293 294 293 294 294 294 295 295 296 296 297 296 296 297 297 297 297 297 297 296 297 297 297 299 298 298 297 297 295 294 293 292 290 290 291 292 292 292 293 294 294 294 294 294 294 294 293 294 293
291 291 291 290 291 293 293 293 294 294 294 295 295 296 296 296 296 296 296 296 296 296 296 296 296 297 298 298 298 297 296 295 295 294 294 294 293 292 292 292 292 290 291 291 292 292 292 293 294 294 294 294 294 294
292 292 290 290 292 292 293 293 294 294 294 294 295 295 295 296 296 296 296 296 297 296 296 296 296 298 296 295 294 294 293 293 293 292 293 293 292 292 292 291 289 290 291 291 291 291 292 292 291 290 294 294 295 294
292 289 292 291 292 292 292 292 293 294 294 294 295 294 294 295 295 295 295 294 293 291 291 291 291 293 293 293 292 291 290 291 290 290 288 289 291 290 289 288 289 290 291 290 289 289 289 289 289 290 290 291 292 293
289 290 291 290 291 291 292 291 292 293 293 293 292 291 291 292 292 293 293 292 291 289 289 290 290 289 289 289 289 288 287 288 289 288 287 287 287 287 287 289 288 288 288 287 287 287 287 287 288 289 289 290 290 291
288 289 289 290 289 291 289 290 291 290 290 290 287 286 287 288 289 289 289 290 288 287 287 287 288 290 288 288 288 287 286 286 287 286 286 286 287 288 288 287 286 286 286 287 287 287 286 286 287 287 288 289 289 290
289 288 287 286 286 287 288 288 287 288 287 285 283 283 286 287 287 287 289 287 287 286 286 286 286 287 287 288 287 286 284 285 286 286 285 286 287 288 288 287 286 284 284 285 285 285 286 286 286 286 287 287 287 288
288 287 286 288 287 286 286 284 284 284 283 283 283 285 285 285 284 287 286 285 285 285 285 284 284 285 287 284 285 284 283 283 284 286 284 283 284 284 285 285 285 285 282 282 282 283 284 284 284 284 285 286 286 287
288 288 285 284 284 283 284 284 283 283 283 283 284 284 284 284 285 286 285 284 283 283 282 282 282 283 283 283 282 281 281 281 282 283 283 282 281 281 281 281 282 281 280 280 281 282 282 283 283 283 284 284 285 285
286 286 284 283 283 283 282 282 282 282 283 284 283 283 283 283 284 285 284 282 282 281 281 281 280 280 280 280 280 280 280 280 281 281 282 282 281 280 279 279 279 279 279 280 280 280 281 282 282 282 283 284 285 285
283 283 283 280 281 282 283 283 283 284 284 284 283 282 282 283 284 284 283 282 281 281 281 281 281 280 280 279 279 278 278 278 281 281 282 283 282 281 278 278 278 278 279 279 280 280 280 280 281 282 283 284 284 284
283 283 283 280 280 282 284 284 284 284 284 284 283 283 282 282 282 281 281 281 281 281 281 280 279 279 280 280 279 278 277 276 276 277 279 279 278 277 277 277 277 277 277 278 279 279 280 281 282 283 284 283 284 283
283 283 283 282 282 283 284 283 281 280 280 281 281 281 281 282 282 281 280 280 280 280 280 279 279 279 279 278 279 279 279 276 273 273 273 274 275 276 276 275 276 276 277 277 278 279 279 280 282 283 283 283 282 281
283 283 282 282 282 282 280 281 281 281 282 281 281 281 281 281 281 282 280 279 279 280 279 280 280 279 277 276 275 274 272 272 273 272 272 271 272 273 273 273 275 276 276 276 278 278 279 279 280 282 282 281 281 280
279 280 281 281 281 281 281 280 280 280 280 281 281 282 282 282 281 283 279 278 279 279 279 279 279 278 276 275 274 273 272 272 271 270 270 270 270 270 270 273 274 274 275 276 277 278 278 278 279 280 281 280 280 279
Wind_Speed
21 19 15 14 16 16 18 15 13 11 6 1 8 11 17 17 17 16 8 28 12 5 8 6 9 9 6 6 7 2 4 6 4 5 5 3 3 0 4 6 2 2 5 5 5 4 2 14 9 8 10 13 17 24
21 16 15 14 14 15 14 10 13 9 10 4 6 10 9 9 20 16 3 16 13 2 3 6 11 13 9 6 4 3 4 2 1 3 2 4 3 3 5 4 3 2 2 5 2 4 8 3 4 8 13 16 11 18
18 17 16 15 15 16 17 12 14 12 11 11 11 8 6 9 16 10 10 12 7 2 4 4 9 14 14 12 7 6 3 2 1 2 3 3 4 6 5 5 7 2 3 3 7 5 8 7 8 5 7 16 17 13
16 16 17 17 17 15 15 12 10 10 10 5 4 4 6 14 16 12 8 13 5 2 3 6 5 4 6 11 11 11 6 7 4 4 3 3 5 5 7 11 10 9 7 8 9 7 10 1 6 6 9 12 12 18
14 15 17 17 17 17 16 16 12 8 10 8 6 7 11 18 14 8 10 14 8 4 2 3 6 7 7 9 11 13 10 9 6 6 4 6 8 7 9 11 9 10 7 7 8 8 9 10 9 9 11 9 5 9
13 13 16 16 17 18 18 18 14 11 12 14 14 15 19 15 9 6 2 10 12 5 3 3 3 6 5 9 10 9 8 7 7 7 5 6 13 6 7 11 14 14 11 12 13 12 13 14 14 10 10 5 6 6
20 19 18 18 19 19 20 21 21 19 20 20 19 17 14 6 2 3 3 4 10 5 2 3 4 5 3 5 5 5 7 5 5 6 6 10 11 5 7 14 18 18 19 18 18 16 14 15 11 11 7 7 7 0
18 18 19 19 19 18 19 19 19 20 18 15 13 11 8 6 2 5 7 4 3 5 2 3 2 5 4 3 3 3 4 4 4 7 8 9 9 9 9 16 17 17 19 20 18 13 14 15 13 14 11 8 9 8
18 17 17 16 16 15 13 10 8 8 10 12 9 4 3 4 2 2 4 1 2 2 2 3 3 2 2 2 1 2 2 4 4 6 10 6 8 9 12 18 20 22 23 23 21 17 13 14 13 14 11 9 10 8
16 14 14 13 14 15 16 16 14 16 10 4 3 1 1 2 1 5 2 0 2 2 3 3 1 1 1 1 1 3 1 2 3 1 5 3 6 8 9 13 15 15 14 16 17 15 14 13 15 12 11 10 10 8
11 12 13 14 14 16 18 19 20 15 6 4 2 2 1 2 3 1 1 2 3 3 3 2 3 3 2 3 2 1 2 2 3 1 2 2 1 10 12 13 12 14 12 2 7 12 12 10 12 9 6 6 8 7
11 11 12 13 15 18 19 19 18 14 9 7 5 1 2 1 2 3 2 1 4 1 2 3 2 3 2 1 3 3 3 2 3 1 3 2 6 8 12 12 14 17 15 12 6 3 5 3 6 5 4 6 9 10
12 12 12 14 14 14 17 18 17 14 11 4 3 1 3 2 3 3 5 3 2 3 3 3 2 2 3 2 3 3 3 4 2 3 2 3 7 9 11 11 12 12 15 16 14 14 11 10 8 6 4 5 10 11
13 14 14 15 11 13 18 17 16 11 5 2 2 3 3 3 4 2 4 4 3 2 3 4 4 2 3 3 3 3 3 2 3 3 2 5 8 8 9 10 12 14 12 10 11 8 6 5 6 7 8 9 10 8
15 16 17 12 10 16 17 15 12 7 4 3 2 4 4 4 2 3 3 4 5 4 3 4 4 3 3 3 3 3 3 4 4 1 3 3 6 8 10 10 11 11 9 8 7 6 5 4 5 6 8 11 12 10
16 17 4 6 15 17 16 13 7 4 3 3 4 4 4 4 4 3 5 7 4 3 2 3 3 3 4 3 4 6 3 2 2 4 3 3 6 7 8 8 9 9 9 7 7 6 4 3 3 4 7 8 8 8
13 6 4 14 18 16 14 4 2 3 3 3 3 3 6 7 6 6 6 6 2 3 2 2 4 4 1 3 3 2 2 4 4 3 2 4 5 6 6 7 7 8 9 8 7 5 5 5 2 3 3 5 5 7
11 11 15 19 15 13 4 3 3 3 4 5 6 4 4 5 6 7 7 6 5 4 3 4 4 4 4 4 2 2 2 3 2 1 2 2 3 5 5 7 8 9 9 8 8 8 2 2 2 2 3 5 6 5
13 15 15 9 9 6 2 3 3 3 4 4 5 5 5 5 7 7 7 7 7 6 3 3 5 5 6 5 3 2 1 1 2 2 1 1 2 3 5 7 8 8 9 9 8 5 7 7 6 5 3 6 4 7
13 9 5 11 7 3 3 2 1 4 3 3 5 6 5 5 5 4 4 5 6 3 5 4 8 9 7 3 1 1 2 2 2 2 2 2 1 4 5 5 6 9 9 10 10 10 9 8 7 7 7 7 4 4
9 2 10 5 3 4 2 3 3 3 4 3 5 7 6 4 5 4 3 2 3 3 4 4 8 4 2 2 1 3 3 3 2 2 3 3 4 4 4 7 8 8 5 5 6 6 9 6 12 13 7 10 7 5
4 8 4 2 2 2 3 2 4 5 4 5 5 4 5 6 5 2 3 1 1 3 3 5 7 6 2 3 3 5 3 3 2 1 2 2 4 4 4 5 5 4 4 5 8 7 9 13 14 14 11 7 8 7
5 2 2 2 3 3 2 2 3 3 3 4 6 7 6 6 6 6 2 2 3 5 6 6 4 6 5 5 5 7 6 4 2 3 2 3 4 3 3 3 7 5 4 7 9 10 10 13 14 14 14 10 4 4
1 1 2 2 3 2 2 2 2 3 4 4 5 6 7 5 5 7 10 3 4 5 6 9 8 1 2 1 3 4 6 5 1 3 3 4 2 1 1 5 6 7 8 9 9 10 11 11 13 13 13 11 9 4
3 3 3 4 3 3 3 1 2 2 3 3 5 4 3 3 3 7 2 2 4 5 5 6 6 6 5 4 3 3 7 6 3 3 5 5 5 3 2 3 4 6 9 10 10 12 12 11 11 12 12 11 11 12
5 5 5 5 3 4 3 2 3 3 2 2 3 3 3 3 3 2 2 3 3 4 5 6 5 6 2 4 4 4 6 9 9 2 4 5 7 6 4 4 4 5 11 10 10 11 12 12 12 13 12 11 10 10
5 6 4 2 2 2 2 1 2 3 3 3 3 2 2 3 4 3 3 3 3 4 6 6 7 4 4 3 5 6 6 7 7 6 4 4 6 6 5 6 5 8 10 10 10 10 11 12 11 12 12 12 10 9
4 5 6 6 4 3 3 3 3 4 4 3 2 4 3 3 2 2 2 2 3 4 4 3 3 4 3 4 5 6 6 8 5 3 3 2 3 4 7 7 7 9 9 9 10 11 11 11 12 12 12 12 11 9
5 5 5 4 3 3 5 6 4 4 3 4 3 4 4 3 3 3 6 6 8 7 5 4 1 2 2 0 3 6 7 9 6 1 0 1 2 6 11 10 10 10 10 11 11 11 12 12 12 12 12 11 10 10
6 7 5 6 5 7 4 5 3 3 4 5 5 7 8 8 13 12 9 11 10 7 4 3 1 1 1 0 2 4 6 7 8 7 4 4 5 9 10 11 12 12 12 12 13 13 11 11 10 10 9 9 8 9
7 6 5 4 4 3 2 1 2 3 3 5 8 10 11 9 11 10 13 13 10 6 7 7 5 4 3 2 1 1 2 5 5 5 4 6 7 8 10 11 11 11 11 12 12 12 13 13 11 11 10 10 10 12
5 7 6 5 3 4 3 3 2 4 4 6 7 6 5 3 6 4 8 13 12 10 11 8 6 7 5 4 3 2 0 2 4 5 6 6 7 9 10 10 10 11 11 11 11 11 13 12 12 12 9 10 11 12
3 3 2 2 3 4 3 2 2 3 4 4 4 6 6 7 7 2 6 12 14 12 11 10 6 7 8 6 3 1 1 1 3 4 6 7 7 8 8 7 9 9 11 11 10 11 12 12 12 12 10 9 10 11
Wind_Direction
345 346 345 343 346 347 343 347 357 357 13 160 197 188 187 197 203 207 196 191 185 226 245 225 248 258 258 244 249 165 215 211 194 236 257 256 273 339 264 287 334 299 316 5 328 284 332 3 2 9 321 309 316 318
356 359 2 358 356 3 6 15 24 36 37 36 182 183 208 187 175 139 110 185 193 264 314 294 261 261 293 330 315 233 308 191 8 273 256 286 271 261 292 315 195 321 0 322 260 300 276 215 250 303 335 323 306 315
19 18 24 30 26 31 38 57 43 55 67 78 91 119 152 167 159 154 139 147 148 229 258 246 234 240 244 248 284 281 267 307 245 307 316 313 293 352 308 313 329 309 11 275 318 325 316 204 257 256 335 319 319 313
24 34 38 34 30 38 36 40 49 63 58 73 98 118 157 163 163 167 141 163 168 202 244 189 162 215 221 226 232 241 261 267 289 255 234 265 282 299 291 318 298 299 312 281 301 298 342 210 291 328 315 308 343 340
31 35 28 26 43 48 45 49 57 67 58 66 88 113 136 152 152 150 173 192 191 271 311 118 166 177 207 218 228 229 239 247 259 268 245 258 275 286 280 277 266 268 278 270 265 322 309 291 299 304 312 320 25 348
28 26 34 53 44 52 56 52 51 71 61 68 103 110 115 140 132 140 134 208 220 269 305 220 119 176 189 210 218 221 226 234 243 263 268 272 270 267 267 278 293 303 285 269 274 287 293 294 290 283 285 307 35 19
50 55 57 51 62 63 53 56 63 66 84 83 80 78 89 106 237 25 24 359 191 251 280 263 184 158 209 213 222 228 228 243 256 271 257 258 270 197 260 273 288 292 289 286 284 277 270 273 271 283 252 275 302 150
58 61 62 65 66 61 64 66 67 63 62 65 63 66 67 72 54 52 39 48 208 261 268 279 150 170 190 218 235 225 240 235 235 243 260 269 272 269 269 277 289 313 313 308 297 276 268 272 268 273 275 274 266 254
59 61 60 54 47 43 41 42 34 9 343 335 331 354 333 26 36 28 28 27 296 250 268 260 268 163 164 227 287 252 275 268 273 257 261 270 271 256 311 348 320 302 292 286 281 285 271 274 254 264 275 263 254 244
47 43 37 34 28 20 12 3 345 342 343 358 324 30 38 69 257 306 233 312 297 242 234 264 271 219 275 63 286 306 100 246 286 272 309 265 269 19 341 299 292 295 286 273 257 246 249 256 263 251 257 250 240 221
22 16 13 11 6 0 358 0 2 356 343 5 346 23 116 328 250 258 268 251 204 234 216 270 329 310 77 292 326 116 288 254 259 76 293 272 300 359 338 337 341 347 3 352 240 247 257 267 256 231 240 246 236 183
348 348 348 345 347 351 352 350 351 357 358 322 328 320 342 292 259 246 244 237 248 326 146 287 49 347 99 206 261 194 250 248 262 271 260 252 42 10 349 351 358 3 356 352 351 239 229 297 360 325 315 299 245 116
319 321 324 332 330 338 344 346 345 335 327 253 247 295 251 168 247 246 179 217 217 181 209 234 258 267 160 222 245 229 234 240 327 237 231 63 33 17 355 357 359 9 2 4 22 17 35 38 26 31 51 69 87 99
312 310 310 317 315 326 334 333 336 337 291 274 228 264 244 187 237 253 308 348 37 275 265 291 286 263 202 216 240 248 226 256 255 237 160 62 11 1 8 360 2 5 3 8 8 30 43 60 73 70 74 88 104 113
310 310 307 302 305 325 327 323 323 309 278 269 251 253 230 250 292 289 291 264 252 251 303 296 257 237 199 218 222 251 217 238 225 198 81 32 6 11 12 359 360 356 355 3 15 30 38 46 64 68 70 93 99 97
314 317 270 295 324 325 328 324 291 245 244 248 239 259 264 283 270 262 264 260 266 260 235 240 272 247 217 216 208 223 249 244 71 68 80 25 22 20 6 356 354 350 345 353 6 9 22 30 38 105 102 98 111 118
313 269 300 317 321 321 318 299 249 226 239 236 241 268 276 283 284 287 275 259 231 232 239 311 263 240 264 236 237 258 326 78 55 96 69 43 26 18 1 355 349 345 350 349 355 359 355 353 155 173 112 113 112 123
281 301 323 317 322 311 282 238 251 241 247 248 264 280 270 272 280 275 266 264 243 225 209 222 264 242 246 263 263 129 118 133 143 121 96 35 14 11 352 344 345 346 349 350 344 334 264 304 283 157 138 161 168 170
291 301 307 316 328 305 275 221 246 263 255 282 274 270 268 269 265 269 277 274 264 266 265 236 239 244 249 272 293 184 186 266 103 88 327 108 67 356 316 335 325 352 342 343 344 344 326 302 271 308 215 199 212 187
305 307 290 311 296 268 256 237 256 266 265 297 289 281 281 276 291 270 258 275 284 264 235 237 255 269 290 296 99 30 86 152 223 251 232 182 302 344 331 340 2 338 340 345 357 1 355 353 320 253 227 227 236 223
301 277 320 305 238 245 274 293 269 240 286 280 288 297 290 297 298 294 300 358 239 233 277 354 345 336 42 79 144 153 162 173 170 254 304 311 359 322 342 357 350 337 345 1 355 355 358 5 354 336 270 227 233 230
299 322 294 345 278 275 264 257 287 306 281 282 304 300 290 292 299 296 335 280 71 32 2 341 351 348 50 47 72 66 88 104 93 109 229 296 339 348 343 344 320 350 356 27 1 355 352 355 351 348 349 300 222 235
310 281 249 243 237 233 253 291 257 260 277 294 309 298 294 300 321 302 264 90 90 31 3 359 4 20 32 42 51 47 36 24 56 47 4 334 319 330 320 325 32 10 4 12 2 356 353 349 355 355 359 7 6 143
252 226 231 234 241 241 292 262 256 270 307 315 313 310 301 311 311 297 275 70 52 30 18 5 352 277 175 134 54 43 18 1 30 86 28 328 345 8 50 64 47 27 5 353 4 360 2 358 357 358 359 4 4 336
226 187 218 215 233 219 220 242 284 286 277 298 300 279 317 310 282 293 338 61 27 26 13 4 359 358 354 13 57 67 35 8 355 76 43 3 356 11 69 77 100 51 14 1 357 347 353 355 356 357 351 356 357 353
232 172 203 201 195 209 188 213 210 240 297 279 266 304 306 295 267 246 96 31 354 4 3 354 347 326 23 43 4 14 4 347 322 134 72 39 33 17 1 355 346 39 7 351 342 336 334 342 342 342 341 343 341 336
230 194 191 215 225 185 211 243 261 245 226 231 251 288 274 256 257 109 116 81 346 354 339 344 333 328 345 9 9 353 340 346 339 355 95 76 56 39 16 355 339 345 336 339 337 334 327 329 330 330 326 325 326 327
223 176 180 182 193 194 183 208 201 215 220 207 224 216 229 240 312 91 71 32 317 309 305 309 322 323 334 357 356 351 349 335 301 225 187 166 123 53 16 347 332 330 329 334 336 332 327 325 321 320 317 314 313 320
190 166 135 163 179 196 215 202 218 210 218 198 220 232 243 257 358 305 294 298 296 287 277 286 232 280 239 132 52 36 26 11 359 74 258 19 39 36 1 344 339 339 336 331 330 328 326 318 309 308 307 304 312 311
169 163 168 165 187 208 209 199 229 230 253 254 263 271 272 275 281 280 263 267 263 252 239 234 225 249 95 348 81 70 57 45 33 17 7 24 359 337 336 339 339 339 340 338 335 333 336 335 325 319 326 326 333 338
146 172 168 177 214 200 191 115 272 235 241 256 257 263 270 283 284 257 247 245 240 213 203 204 192 188 176 146 58 76 113 69 27 17 356 328 324 324 328 330 332 332 334 336 335 335 337 335 330 331 339 340 340 337
171 181 163 184 190 141 179 216 262 259 259 241 254 236 247 238 253 230 201 208 207 211 214 218 205 179 166 149 120 99 58 332 345 341 339 328 319 317 321 326 328 329 331 335 336 337 339 337 329 325 332 339 343 341
120 152 165 181 184 189 155 216 237 277 252 259 258 241 236 244 256 208 169 198 205 207 203 197 190 146 167 162 147 114 43 332 324 341 342 337 331 326 330 325 327 333 336 337 339 340 341 340 335 331 329 339 340 340